Time,TemperatureF,DewpointF,PressureIn,WindDirection,WindDirectionDegrees,WindSpeedMPH,WindSpeedGustMPH,Humidity,HourlyPrecipIn,Conditions,Clouds,dailyrainin,SoftwareType,DateUTC
2013-08-25 00:00:00,68.7,60.1,30.27,SSE,157,6.0,9.0,74,0.00,,---,0.00,VWS V14.00,2013-08-25 04:00:00,
2013-08-25 00:05:00,68.8,59.8,30.27,SE,146,6.0,12.0,73,0.00,,---,0.00,VWS V14.00,2013-08-25 04:05:00,
2013-08-25 00:10:00,68.8,59.8,30.28,SE,124,4.0,12.0,73,0.00,,---,0.00,VWS V14.00,2013-08-25 04:10:00,
2013-08-25 00:15:00,68.8,59.8,30.27,SE,145,4.0,12.0,73,0.00,,---,0.00,VWS V14.00,2013-08-25 04:15:00,
2013-08-25 00:20:00,68.8,59.8,30.28,SE,131,1.0,12.0,73,0.00,,---,0.00,VWS V14.00,2013-08-25 04:20:00,
2013-08-25 00:25:00,68.8,59.8,30.28,SSE,148,2.0,12.0,73,0.00,,---,0.00,VWS V14.00,2013-08-25 04:25:00,
2013-08-25 00:30:00,68.6,59.6,30.28,SE,144,6.0,11.0,73,0.00,,---,0.00,VWS V14.00,2013-08-25 04:30:00,
2013-08-25 00:35:00,68.5,59.5,30.28,SE,144,4.0,11.0,73,0.00,,---,0.00,VWS V14.00,2013-08-25 04:35:00,
2013-08-25 00:40:00,68.4,59.4,30.28,SSE,150,0.0,11.0,73,0.00,,---,0.00,VWS V14.00,2013-08-25 04:40:00,
2013-08-25 00:45:00,68.2,59.2,30.27,SSE,163,1.0,11.0,73,0.00,,---,0.00,VWS V14.00,2013-08-25 04:45:00,
2013-08-25 00:50:00,68.0,59.0,30.27,SSE,167,1.0,11.0,73,0.00,,---,0.00,VWS V14.00,2013-08-25 04:50:00,
2013-08-25 00:55:00,67.8,59.2,30.28,South,182,0.0,11.0,74,0.00,,---,0.00,VWS V14.00,2013-08-25 04:55:00,
2013-08-25 01:00:00,67.6,59.0,30.28,SSE,166,5.0,7.0,74,0.00,,---,0.00,VWS V14.00,2013-08-25 05:00:00,
2013-08-25 01:05:00,67.4,59.2,30.28,South,180,0.0,7.0,75,0.00,,---,0.00,VWS V14.00,2013-08-25 05:05:00,
2013-08-25 01:10:00,67.2,59.0,30.28,SSE,159,0.0,7.0,75,0.00,,---,0.00,VWS V14.00,2013-08-25 05:10:00,
2013-08-25 01:15:00,67.0,59.2,30.27,South,173,0.0,8.0,76,0.00,,---,0.00,VWS V14.00,2013-08-25 05:15:00,
2013-08-25 01:20:00,66.8,59.0,30.28,South,184,1.0,8.0,76,0.00,,---,0.00,VWS V14.00,2013-08-25 05:20:00,
2013-08-25 01:25:00,66.6,59.2,30.27,SSE,148,4.0,8.0,77,0.00,,---,0.00,VWS V14.00,2013-08-25 05:25:00,
2013-08-25 01:30:00,66.5,59.1,30.27,SSE,164,2.0,7.0,77,0.00,,---,0.00,VWS V14.00,2013-08-25 05:30:00,
2013-08-25 01:35:00,66.4,59.0,30.27,SSE,163,2.0,7.0,77,0.00,,---,0.00,VWS V14.00,2013-08-25 05:35:00,
2013-08-25 01:40:00,66.3,59.2,30.27,SSE,152,0.0,7.0,78,0.00,,---,0.00,VWS V14.00,2013-08-25 05:40:00,
2013-08-25 01:45:00,66.1,59.0,30.27,SSE,152,2.0,7.0,78,0.00,,---,0.00,VWS V14.00,2013-08-25 05:45:00,
2013-08-25 01:50:00,65.9,59.2,30.28,SSE,153,1.0,7.0,79,0.00,,---,0.00,VWS V14.00,2013-08-25 05:50:00,
2013-08-25 01:55:00,65.7,59.0,30.27,SSE,153,0.0,7.0,79,0.00,,---,0.00,VWS V14.00,2013-08-25 05:55:00,
2013-08-25 02:00:00,65.5,58.8,30.28,SSE,149,4.0,5.0,79,0.00,,---,0.00,VWS V14.00,2013-08-25 06:00:00,
2013-08-25 02:05:00,65.4,59.1,30.28,SSE,157,2.0,5.0,80,0.00,,---,0.00,VWS V14.00,2013-08-25 06:05:00,
2013-08-25 02:10:00,65.2,58.9,30.27,SSE,148,2.0,6.0,80,0.00,,---,0.00,VWS V14.00,2013-08-25 06:10:00,
2013-08-25 02:15:00,65.1,58.8,30.27,SSE,148,5.0,6.0,80,0.00,,---,0.00,VWS V14.00,2013-08-25 06:15:00,
2013-08-25 02:20:00,65.0,59.0,30.28,SSE,147,2.0,6.0,81,0.00,,---,0.00,VWS V14.00,2013-08-25 06:20:00,
2013-08-25 02:25:00,64.8,58.8,30.28,SSE,147,0.0,6.0,81,0.00,,---,0.00,VWS V14.00,2013-08-25 06:25:00,
2013-08-25 02:30:00,64.7,58.7,30.27,SSE,151,1.0,6.0,81,0.00,,---,0.00,VWS V14.00,2013-08-25 06:30:00,
2013-08-25 02:35:00,64.5,58.9,30.27,SSE,150,1.0,6.0,82,0.00,,---,0.00,VWS V14.00,2013-08-25 06:35:00,
2013-08-25 02:40:00,64.4,58.8,30.27,SSE,148,4.0,6.0,82,0.00,,---,0.00,VWS V14.00,2013-08-25 06:40:00,
2013-08-25 02:45:00,64.3,58.7,30.27,SSE,148,0.0,6.0,82,0.00,,---,0.00,VWS V14.00,2013-08-25 06:45:00,
2013-08-25 02:50:00,64.2,58.9,30.28,South,178,2.0,6.0,83,0.00,,---,0.00,VWS V14.00,2013-08-25 06:50:00,
2013-08-25 02:55:00,64.0,58.7,30.28,South,178,0.0,6.0,83,0.00,,---,0.00,VWS V14.00,2013-08-25 06:55:00,
2013-08-25 03:00:00,63.8,58.5,30.28,South,178,0.0,2.0,83,0.00,,---,0.00,VWS V14.00,2013-08-25 07:00:00,
2013-08-25 03:05:00,63.6,58.7,30.27,South,178,0.0,4.0,84,0.00,,---,0.00,VWS V14.00,2013-08-25 07:05:00,
2013-08-25 03:10:00,63.5,58.6,30.27,South,180,1.0,5.0,84,0.00,,---,0.00,VWS V14.00,2013-08-25 07:10:00,
2013-08-25 03:15:00,63.3,58.4,30.27,SSE,165,0.0,5.0,84,0.00,,---,0.00,VWS V14.00,2013-08-25 07:15:00,
2013-08-25 03:20:00,63.1,58.5,30.27,SSE,165,0.0,5.0,85,0.00,,---,0.00,VWS V14.00,2013-08-25 07:20:00,
2013-08-25 03:25:00,63.0,58.4,30.27,SSE,165,0.0,5.0,85,0.00,,---,0.00,VWS V14.00,2013-08-25 07:25:00,
2013-08-25 03:30:00,62.8,58.2,30.28,SSE,164,0.0,2.0,85,0.00,,---,0.00,VWS V14.00,2013-08-25 07:30:00,
2013-08-25 03:35:00,62.7,58.5,30.28,SSE,164,0.0,4.0,86,0.00,,---,0.00,VWS V14.00,2013-08-25 07:35:00,
2013-08-25 03:40:00,62.6,58.4,30.28,SSE,164,0.0,4.0,86,0.00,,---,0.00,VWS V14.00,2013-08-25 07:40:00,
2013-08-25 03:45:00,62.6,58.4,30.28,SSE,164,0.0,4.0,86,0.00,,---,0.00,VWS V14.00,2013-08-25 07:45:00,
2013-08-25 03:50:00,62.5,58.6,30.28,SSE,165,0.0,4.0,87,0.00,,---,0.00,VWS V14.00,2013-08-25 07:50:00,
2013-08-25 03:55:00,62.5,58.6,30.28,SSE,164,2.0,4.0,87,0.00,,---,0.00,VWS V14.00,2013-08-25 07:55:00,
2013-08-25 04:00:00,62.5,58.6,30.28,SSE,164,0.0,4.0,87,0.00,,---,0.00,VWS V14.00,2013-08-25 08:00:00,
2013-08-25 04:05:00,62.5,58.6,30.28,SSE,165,0.0,4.0,87,0.00,,---,0.00,VWS V14.00,2013-08-25 08:05:00,
2013-08-25 04:10:00,62.4,58.5,30.28,SSE,164,1.0,4.0,87,0.00,,---,0.00,VWS V14.00,2013-08-25 08:10:00,
2013-08-25 04:15:00,62.3,58.4,30.28,SSE,164,2.0,4.0,87,0.00,,---,0.00,VWS V14.00,2013-08-25 08:15:00,
2013-08-25 04:20:00,62.2,58.6,30.28,SSE,164,4.0,5.0,88,0.00,,---,0.00,VWS V14.00,2013-08-25 08:20:00,
2013-08-25 04:25:00,62.2,58.6,30.28,SSE,164,1.0,5.0,88,0.00,,---,0.00,VWS V14.00,2013-08-25 08:25:00,
2013-08-25 04:30:00,62.1,58.5,30.28,SSE,165,0.0,2.0,88,0.00,,---,0.00,VWS V14.00,2013-08-25 08:30:00,
2013-08-25 04:35:00,62.0,58.4,30.28,SSE,164,2.0,4.0,88,0.00,,---,0.00,VWS V14.00,2013-08-25 08:35:00,
2013-08-25 04:40:00,62.0,58.4,30.28,SSE,165,0.0,4.0,88,0.00,,---,0.00,VWS V14.00,2013-08-25 08:40:00,
2013-08-25 04:45:00,62.0,58.4,30.28,SSE,164,0.0,4.0,88,0.00,,---,0.00,VWS V14.00,2013-08-25 08:45:00,
2013-08-25 04:50:00,61.9,58.3,30.28,SSE,164,1.0,5.0,88,0.00,,---,0.00,VWS V14.00,2013-08-25 08:50:00,
2013-08-25 04:55:00,61.9,58.3,30.28,SSE,164,2.0,6.0,88,0.00,,---,0.00,VWS V14.00,2013-08-25 08:55:00,
2013-08-25 05:00:00,61.9,58.3,30.27,SSE,162,4.0,5.0,88,0.00,,---,0.00,VWS V14.00,2013-08-25 09:00:00,
2013-08-25 05:05:00,61.9,58.3,30.27,SSE,161,5.0,5.0,88,0.00,,---,0.00,VWS V14.00,2013-08-25 09:05:00,
2013-08-25 05:10:00,61.9,58.6,30.27,SSE,153,4.0,7.0,89,0.00,,---,0.00,VWS V14.00,2013-08-25 09:10:00,
2013-08-25 05:15:00,62.0,58.7,30.27,SE,140,2.0,7.0,89,0.00,,---,0.00,VWS V14.00,2013-08-25 09:15:00,
2013-08-25 05:20:00,62.0,58.4,30.27,SE,140,0.0,7.0,88,0.00,,---,0.00,VWS V14.00,2013-08-25 09:20:00,
2013-08-25 05:25:00,62.0,58.7,30.27,SE,140,0.0,7.0,89,0.00,,---,0.00,VWS V14.00,2013-08-25 09:25:00,
2013-08-25 05:30:00,61.8,58.5,30.27,SE,140,1.0,4.0,89,0.00,,---,0.00,VWS V14.00,2013-08-25 09:30:00,
2013-08-25 05:36:00,61.7,58.4,30.27,SSE,148,5.0,6.0,89,0.00,,---,0.00,VWS V14.00,2013-08-25 09:36:00,
2013-08-25 05:41:00,61.7,58.4,30.27,SSE,148,1.0,6.0,89,0.00,,---,0.00,VWS V14.00,2013-08-25 09:41:00,
2013-08-25 05:46:00,61.6,58.3,30.27,SSE,149,0.0,6.0,89,0.00,,---,0.00,VWS V14.00,2013-08-25 09:46:00,
2013-08-25 05:51:00,61.6,58.3,30.27,SSE,153,2.0,6.0,89,0.00,,---,0.00,VWS V14.00,2013-08-25 09:51:00,
2013-08-25 05:56:00,61.5,58.2,30.27,SSE,153,1.0,6.0,89,0.00,,---,0.00,VWS V14.00,2013-08-25 09:56:00,
2013-08-25 06:00:00,61.5,58.5,30.27,SSE,153,1.0,6.0,90,0.00,,---,0.00,VWS V14.00,2013-08-25 10:00:00,
2013-08-25 06:01:00,61.4,58.5,30.27,SSE,153,2.0,4.0,90,0.00,,---,0.00,VWS V14.00,2013-08-25 10:01:00,
2013-08-25 06:06:00,61.3,58.3,30.27,SSE,153,1.0,5.0,90,0.00,,---,0.00,VWS V14.00,2013-08-25 10:06:00,
2013-08-25 06:11:00,61.3,58.3,30.27,SSE,153,0.0,5.0,90,0.00,,---,0.00,VWS V14.00,2013-08-25 10:11:00,
2013-08-25 06:16:00,61.3,58.3,30.27,SSE,153,1.0,5.0,90,0.00,,---,0.00,VWS V14.00,2013-08-25 10:16:00,
2013-08-25 06:21:00,61.1,58.8,30.27,SSE,152,0.0,5.0,92,0.00,,---,0.00,VWS V14.00,2013-08-25 10:21:00,
2013-08-25 06:26:00,61.1,58.2,30.27,SSE,153,2.0,5.0,90,0.00,,---,0.00,VWS V14.00,2013-08-25 10:26:00,
2013-08-25 06:30:00,61.1,58.2,30.27,SSE,153,1.0,5.0,90,0.00,,---,0.00,VWS V14.00,2013-08-25 10:30:00,
2013-08-25 06:31:00,60.9,58.0,30.27,SSE,153,2.0,5.0,90,0.00,,---,0.00,VWS V14.00,2013-08-25 10:31:00,
2013-08-25 06:36:00,60.8,58.2,30.27,SE,144,5.0,7.0,91,0.00,,---,0.00,VWS V14.00,2013-08-25 10:36:00,
2013-08-25 06:41:00,60.8,58.2,30.26,SSE,153,5.0,9.0,91,0.00,,---,0.00,VWS V14.00,2013-08-25 10:41:00,
2013-08-25 06:46:00,60.9,58.3,30.27,SSE,153,4.0,9.0,91,0.00,,---,0.00,VWS V14.00,2013-08-25 10:46:00,
2013-08-25 06:51:00,60.9,58.3,30.27,SE,144,6.0,9.0,91,0.00,,---,0.00,VWS V14.00,2013-08-25 10:51:00,
2013-08-25 06:56:00,61.0,58.4,30.27,SSE,148,1.0,9.0,91,0.00,,---,0.00,VWS V14.00,2013-08-25 10:56:00,
2013-08-25 07:00:00,61.0,58.4,30.27,SSE,148,2.0,9.0,91,0.00,,---,0.00,VWS V14.00,2013-08-25 11:00:00,
2013-08-25 07:01:00,61.1,58.5,30.27,SE,142,1.0,6.0,91,0.00,,---,0.00,VWS V14.00,2013-08-25 11:01:00,
2013-08-25 07:06:00,61.1,58.5,30.28,SE,128,1.0,6.0,91,0.00,,---,0.00,VWS V14.00,2013-08-25 11:06:00,
2013-08-25 07:11:00,61.2,58.6,30.28,SE,128,1.0,6.0,91,0.00,,---,0.00,VWS V14.00,2013-08-25 11:11:00,
2013-08-25 07:16:00,61.3,58.7,30.27,SE,129,0.0,6.0,91,0.00,,---,0.00,VWS V14.00,2013-08-25 11:16:00,
2013-08-25 07:21:00,61.3,58.7,30.27,SE,129,1.0,6.0,91,0.00,,---,0.00,VWS V14.00,2013-08-25 11:21:00,
2013-08-25 07:26:00,61.4,58.8,30.27,SSE,155,6.0,7.0,91,0.00,,---,0.00,VWS V14.00,2013-08-25 11:26:00,
2013-08-25 07:30:00,61.4,58.8,30.27,SSE,156,5.0,7.0,91,0.00,,---,0.00,VWS V14.00,2013-08-25 11:30:00,
2013-08-25 07:31:00,61.6,59.0,30.27,South,180,0.0,5.0,91,0.00,,---,0.00,VWS V14.00,2013-08-25 11:31:00,
2013-08-25 07:36:00,61.8,58.8,30.28,South,182,1.0,5.0,90,0.00,,---,0.00,VWS V14.00,2013-08-25 11:36:00,
2013-08-25 07:41:00,62.1,59.1,30.28,South,182,0.0,5.0,90,0.00,,---,0.00,VWS V14.00,2013-08-25 11:41:00,
2013-08-25 07:46:00,62.3,59.0,30.28,SSW,211,1.0,6.0,89,0.00,,---,0.00,VWS V14.00,2013-08-25 11:46:00,
2013-08-25 07:51:00,62.5,59.2,30.28,SSW,209,0.0,6.0,89,0.00,,---,0.00,VWS V14.00,2013-08-25 11:51:00,
2013-08-25 07:56:00,62.7,59.4,30.28,SSW,209,0.0,6.0,89,0.00,,---,0.00,VWS V14.00,2013-08-25 11:56:00,
2013-08-25 08:00:00,62.8,59.2,30.28,SSW,209,0.0,6.0,88,0.00,,---,0.00,VWS V14.00,2013-08-25 12:00:00,
2013-08-25 08:01:00,63.0,59.4,30.28,SSW,209,1.0,4.0,88,0.00,,---,0.00,VWS V14.00,2013-08-25 12:01:00,
2013-08-25 08:06:00,63.3,59.7,30.28,South,178,1.0,4.0,88,0.00,,---,0.00,VWS V14.00,2013-08-25 12:06:00,
2013-08-25 08:11:00,63.6,59.7,30.28,SSE,150,5.0,6.0,87,0.00,,---,0.00,VWS V14.00,2013-08-25 12:11:00,
2013-08-25 08:16:00,63.9,59.6,30.28,SSW,197,4.0,6.0,86,0.00,,---,0.00,VWS V14.00,2013-08-25 12:16:00,
2013-08-25 08:21:00,64.2,59.9,30.29,SSW,193,2.0,6.0,86,0.00,,---,0.00,VWS V14.00,2013-08-25 12:21:00,
2013-08-25 08:26:00,64.6,60.0,30.29,SW,219,4.0,7.0,85,0.00,,---,0.00,VWS V14.00,2013-08-25 12:26:00,
2013-08-25 08:30:00,64.6,60.0,30.29,SSW,194,0.0,7.0,85,0.00,,---,0.00,VWS V14.00,2013-08-25 12:30:00,
2013-08-25 08:31:00,65.0,60.0,30.29,SSW,209,4.0,6.0,84,0.00,,---,0.00,VWS V14.00,2013-08-25 12:31:00,
2013-08-25 08:36:00,65.4,60.1,30.29,SSW,202,2.0,6.0,83,0.00,,---,0.00,VWS V14.00,2013-08-25 12:36:00,
2013-08-25 08:41:00,65.7,60.1,30.29,SSW,198,3.0,6.0,82,0.00,,---,0.00,VWS V14.00,2013-08-25 12:41:00,
2013-08-25 08:46:00,65.9,60.3,30.29,SSW,198,2.0,6.0,82,0.00,,---,0.00,VWS V14.00,2013-08-25 12:46:00,
2013-08-25 08:51:00,66.2,59.9,30.29,SSW,207,3.0,7.0,80,0.00,,---,0.00,VWS V14.00,2013-08-25 12:51:00,
2013-08-25 08:56:00,66.5,60.2,30.29,SW,217,2.0,7.0,80,0.00,,---,0.00,VWS V14.00,2013-08-25 12:56:00,
2013-08-25 09:00:00,66.5,60.2,30.29,SW,217,2.0,7.0,80,0.00,,---,0.00,VWS V14.00,2013-08-25 13:00:00,
2013-08-25 09:01:00,66.9,60.5,30.29,SW,217,3.0,3.0,80,0.00,,---,0.00,VWS V14.00,2013-08-25 13:01:00,
2013-08-25 09:06:00,67.4,60.7,30.29,SSW,212,2.0,4.0,79,0.00,,---,0.00,VWS V14.00,2013-08-25 13:06:00,
2013-08-25 09:11:00,67.9,60.4,30.29,SSW,206,7.0,8.0,77,0.00,,---,0.00,VWS V14.00,2013-08-25 13:11:00,
2013-08-25 09:16:00,68.3,60.1,30.29,SSW,194,4.0,9.0,75,0.00,,---,0.00,VWS V14.00,2013-08-25 13:16:00,
2013-08-25 09:21:00,68.6,60.0,30.29,SSW,213,5.0,9.0,74,0.00,,---,0.00,VWS V14.00,2013-08-25 13:21:00,
2013-08-25 09:26:00,68.9,60.3,30.28,SW,222,2.0,9.0,74,0.00,,---,0.00,VWS V14.00,2013-08-25 13:26:00,
2013-08-25 09:30:00,68.9,60.3,30.28,SW,222,3.0,9.0,74,0.00,,---,0.00,VWS V14.00,2013-08-25 13:30:00,
2013-08-25 09:31:00,69.2,60.2,30.28,South,185,3.0,11.0,73,0.00,,---,0.00,VWS V14.00,2013-08-25 13:31:00,
2013-08-25 09:36:00,69.4,60.0,30.28,SW,236,8.0,12.0,72,0.00,,---,0.00,VWS V14.00,2013-08-25 13:36:00,
2013-08-25 09:41:00,69.5,60.1,30.28,SW,223,9.0,12.0,72,0.00,,---,0.00,VWS V14.00,2013-08-25 13:41:00,
2013-08-25 09:46:00,69.7,59.9,30.27,SW,219,7.0,12.0,71,0.00,,---,0.00,VWS V14.00,2013-08-25 13:46:00,
2013-08-25 09:51:00,70.0,60.2,30.27,SSW,199,4.0,12.0,71,0.00,,---,0.00,VWS V14.00,2013-08-25 13:51:00,
2013-08-25 09:56:00,70.3,60.5,30.27,SSW,194,5.0,12.0,71,0.00,,---,0.00,VWS V14.00,2013-08-25 13:56:00,
2013-08-25 10:00:00,70.3,60.5,30.27,SW,224,8.0,12.0,71,0.00,,---,0.00,VWS V14.00,2013-08-25 14:00:00,
2013-08-25 10:01:00,70.7,60.8,30.27,SW,225,6.0,10.0,71,0.00,,---,0.00,VWS V14.00,2013-08-25 14:01:00,
2013-08-25 10:06:00,70.9,60.6,30.27,SW,232,9.0,13.0,70,0.00,,---,0.00,VWS V14.00,2013-08-25 14:06:00,
2013-08-25 10:11:00,71.4,61.1,30.27,SW,227,5.0,13.0,70,0.00,,---,0.00,VWS V14.00,2013-08-25 14:11:00,
2013-08-25 10:16:00,71.8,61.5,30.26,SW,232,8.0,13.0,70,0.00,,---,0.00,VWS V14.00,2013-08-25 14:16:00,
2013-08-25 10:21:00,72.1,61.4,30.26,SW,227,6.0,13.0,69,0.00,,---,0.00,VWS V14.00,2013-08-25 14:21:00,
2013-08-25 10:26:00,72.4,61.7,30.26,SSW,202,6.0,13.0,69,0.00,,---,0.00,VWS V14.00,2013-08-25 14:26:00,
2013-08-25 10:30:00,72.4,61.7,30.26,SW,216,3.0,13.0,69,0.00,,---,0.00,VWS V14.00,2013-08-25 14:30:00,
2013-08-25 10:31:00,72.8,62.0,30.25,SSW,212,3.0,12.0,69,0.00,,---,0.00,VWS V14.00,2013-08-25 14:31:00,
2013-08-25 10:36:00,73.1,61.9,30.25,WSW,239,7.0,13.0,68,0.00,,---,0.00,VWS V14.00,2013-08-25 14:36:00,
2013-08-25 10:41:00,73.5,61.9,30.25,SSW,207,12.0,14.0,67,0.00,,---,0.00,VWS V14.00,2013-08-25 14:41:00,
2013-08-25 10:46:00,73.7,61.7,30.25,SW,221,6.0,14.0,66,0.00,,---,0.00,VWS V14.00,2013-08-25 14:46:00,
2013-08-25 10:51:00,74.0,61.9,30.25,SW,225,8.0,14.0,66,0.00,,---,0.00,VWS V14.00,2013-08-25 14:51:00,
2013-08-25 10:56:00,74.4,62.3,30.25,SSW,213,11.0,14.0,66,0.00,,---,0.00,VWS V14.00,2013-08-25 14:56:00,
2013-08-25 11:00:00,74.4,62.3,30.25,SSW,213,11.0,14.0,66,0.00,,---,0.00,VWS V14.00,2013-08-25 15:00:00,
2013-08-25 11:01:00,74.7,62.2,30.25,WSW,238,5.0,12.0,65,0.00,,---,0.00,VWS V14.00,2013-08-25 15:01:00,
2013-08-25 11:06:00,75.1,62.5,30.24,SW,221,11.0,12.0,65,0.00,,---,0.00,VWS V14.00,2013-08-25 15:06:00,
2013-08-25 11:11:00,75.5,62.5,30.24,SSW,213,8.0,12.0,64,0.00,,---,0.00,VWS V14.00,2013-08-25 15:11:00,
2013-08-25 11:16:00,76.0,63.0,30.24,South,185,9.0,14.0,64,0.00,,---,0.00,VWS V14.00,2013-08-25 15:16:00,
2013-08-25 11:21:00,76.0,62.5,30.24,SSW,213,8.0,14.0,63,0.00,,---,0.00,VWS V14.00,2013-08-25 15:21:00,
2013-08-25 11:26:00,76.3,62.3,30.24,SSW,202,11.0,14.0,62,0.00,,---,0.00,VWS V14.00,2013-08-25 15:26:00,
2013-08-25 11:30:00,76.3,62.3,30.24,SW,218,12.0,14.0,62,0.00,,---,0.00,VWS V14.00,2013-08-25 15:30:00,
2013-08-25 11:31:00,76.4,62.9,30.24,SW,230,3.0,12.0,63,0.00,,---,0.00,VWS V14.00,2013-08-25 15:31:00,
2013-08-25 11:39:00,77.8,63.3,30.23,SW,231,2.0,10.0,61,0.00,,---,0.00,VWS V14.00,2013-08-25 15:39:00,
2013-08-25 11:44:00,78.4,63.4,30.23,South,184,9.0,12.0,60,0.00,,---,0.00,VWS V14.00,2013-08-25 15:44:00,
2013-08-25 11:50:00,78.4,62.9,30.23,SSW,212,10.0,14.0,59,0.00,,---,0.00,VWS V14.00,2013-08-25 15:50:00,
2013-08-25 11:55:00,78.7,62.7,30.23,SW,231,10.0,14.0,58,0.00,,---,0.00,VWS V14.00,2013-08-25 15:55:00,
2013-08-25 12:00:00,79.2,63.2,30.22,SSW,193,7.0,11.0,58,0.00,,---,0.00,VWS V14.00,2013-08-25 16:00:00,
2013-08-25 12:05:00,79.3,62.8,30.22,South,180,5.0,15.0,57,0.00,,---,0.00,VWS V14.00,2013-08-25 16:05:00,
2013-08-25 12:10:00,79.8,62.7,30.22,SW,214,9.0,15.0,56,0.00,,---,0.00,VWS V14.00,2013-08-25 16:10:00,
2013-08-25 12:15:00,80.4,62.2,30.22,SSW,211,2.0,15.0,54,0.00,,---,0.00,VWS V14.00,2013-08-25 16:15:00,
2013-08-25 12:20:00,81.4,62.6,30.22,SW,217,11.0,15.0,53,0.00,,---,0.00,VWS V14.00,2013-08-25 16:20:00,
2013-08-25 12:25:00,81.7,62.4,30.22,SW,235,6.0,15.0,52,0.00,,---,0.00,VWS V14.00,2013-08-25 16:25:00,
2013-08-25 12:30:00,81.9,62.6,30.22,West,276,9.0,10.0,52,0.00,,---,0.00,VWS V14.00,2013-08-25 16:30:00,
2013-08-25 12:35:00,82.3,63.5,30.22,SSW,213,7.0,11.0,53,0.00,,---,0.00,VWS V14.00,2013-08-25 16:35:00,
2013-08-25 12:40:00,82.7,62.8,30.21,South,185,7.0,12.0,51,0.00,,---,0.00,VWS V14.00,2013-08-25 16:40:00,
2013-08-25 12:45:00,82.9,63.5,30.21,WSW,257,11.0,13.0,52,0.00,,---,0.00,VWS V14.00,2013-08-25 16:45:00,
2013-08-25 12:50:00,83.1,63.1,30.21,SSW,202,6.0,15.0,51,0.00,,---,0.00,VWS V14.00,2013-08-25 16:50:00,
2013-08-25 12:55:00,83.2,63.8,30.21,SSW,192,9.0,17.0,52,0.00,,---,0.00,VWS V14.00,2013-08-25 16:55:00,
2013-08-25 13:00:00,83.2,64.3,30.21,SW,219,15.0,17.0,53,0.00,,---,0.00,VWS V14.00,2013-08-25 17:00:00,
2013-08-25 13:05:00,83.3,64.9,30.21,SW,221,8.0,17.0,54,0.00,,---,0.00,VWS V14.00,2013-08-25 17:05:00,
2013-08-25 13:10:00,83.9,64.9,30.20,West,276,10.0,17.0,53,0.00,,---,0.00,VWS V14.00,2013-08-25 17:10:00,
2013-08-25 13:15:00,83.8,64.9,30.20,SW,225,8.0,17.0,53,0.00,,---,0.00,VWS V14.00,2013-08-25 17:15:00,
2013-08-25 13:20:00,83.8,65.4,30.20,SW,233,7.0,17.0,54,0.00,,---,0.00,VWS V14.00,2013-08-25 17:20:00,
2013-08-25 13:25:00,83.8,65.4,30.20,West,260,8.0,18.0,54,0.00,,---,0.00,VWS V14.00,2013-08-25 17:25:00,
2013-08-25 13:30:00,83.9,66.0,30.20,WSW,240,8.0,13.0,55,0.00,,---,0.00,VWS V14.00,2013-08-25 17:30:00,
2013-08-25 13:35:00,83.9,66.0,30.20,SW,218,10.0,18.0,55,0.00,,---,0.00,VWS V14.00,2013-08-25 17:35:00,
2013-08-25 13:40:00,84.2,66.3,30.19,West,259,7.0,18.0,55,0.00,,---,0.00,VWS V14.00,2013-08-25 17:40:00,
2013-08-25 13:45:00,84.5,66.1,30.19,WSW,237,11.0,18.0,54,0.00,,---,0.00,VWS V14.00,2013-08-25 17:45:00,
2013-08-25 13:50:00,84.7,66.2,30.18,WSW,252,3.0,18.0,54,0.00,,---,0.00,VWS V14.00,2013-08-25 17:50:00,
2013-08-25 13:55:00,84.7,66.2,30.18,SW,222,11.0,18.0,54,0.00,,---,0.00,VWS V14.00,2013-08-25 17:55:00,
2013-08-25 14:00:00,84.7,66.2,30.18,WSW,258,8.0,18.0,54,0.00,,---,0.00,VWS V14.00,2013-08-25 18:00:00,
2013-08-25 14:05:00,85.4,66.9,30.18,SSW,210,9.0,18.0,54,0.00,,---,0.00,VWS V14.00,2013-08-25 18:05:00,
2013-08-25 14:10:00,85.5,66.4,30.18,SW,232,14.0,18.0,53,0.00,,---,0.00,VWS V14.00,2013-08-25 18:10:00,
2013-08-25 14:15:00,85.1,66.6,30.17,West,265,7.0,18.0,54,0.00,,---,0.00,VWS V14.00,2013-08-25 18:15:00,
2013-08-25 14:20:00,84.8,66.8,30.17,WSW,240,4.0,18.0,55,0.00,,---,0.00,VWS V14.00,2013-08-25 18:20:00,
2013-08-25 14:25:00,85.1,67.1,30.17,SSW,213,11.0,18.0,55,0.00,,---,0.00,VWS V14.00,2013-08-25 18:25:00,
2013-08-25 14:30:00,85.8,67.8,30.17,West,278,10.0,12.0,55,0.00,,---,0.00,VWS V14.00,2013-08-25 18:30:00,
2013-08-25 14:35:00,85.8,67.2,30.16,WSW,258,10.0,13.0,54,0.00,,---,0.00,VWS V14.00,2013-08-25 18:35:00,
2013-08-25 14:40:00,85.2,67.2,30.16,SW,231,8.0,17.0,55,0.00,,---,0.00,VWS V14.00,2013-08-25 18:40:00,
2013-08-25 14:45:00,85.3,66.8,30.16,West,261,7.0,17.0,54,0.00,,---,0.00,VWS V14.00,2013-08-25 18:45:00,
2013-08-25 14:50:00,85.2,66.7,30.16,WSW,250,7.0,17.0,54,0.00,,---,0.00,VWS V14.00,2013-08-25 18:50:00,
2013-08-25 14:55:00,85.5,67.5,30.16,SW,234,8.0,17.0,55,0.00,,---,0.00,VWS V14.00,2013-08-25 18:55:00,
2013-08-25 15:00:00,85.6,67.6,30.16,SSW,205,7.0,12.0,55,0.00,,---,0.00,VWS V14.00,2013-08-25 19:00:00,
2013-08-25 15:05:00,85.6,67.6,30.16,WSW,252,9.0,15.0,55,0.00,,---,0.00,VWS V14.00,2013-08-25 19:05:00,
2013-08-25 15:10:00,85.4,66.9,30.15,SSW,199,15.0,20.0,54,0.00,,---,0.00,VWS V14.00,2013-08-25 19:10:00,
2013-08-25 15:15:00,85.4,67.4,30.15,SW,230,6.0,20.0,55,0.00,,---,0.00,VWS V14.00,2013-08-25 19:15:00,
2013-08-25 15:20:00,85.2,67.2,30.15,SW,227,6.0,20.0,55,0.00,,---,0.00,VWS V14.00,2013-08-25 19:20:00,
2013-08-25 15:25:00,85.4,67.9,30.15,WSW,247,5.0,20.0,56,0.00,,---,0.00,VWS V14.00,2013-08-25 19:25:00,
2013-08-25 15:30:00,85.2,67.8,30.14,WSW,242,7.0,17.0,56,0.00,,---,0.00,VWS V14.00,2013-08-25 19:30:00,
2013-08-25 15:35:00,85.4,67.9,30.14,SW,218,5.0,17.0,56,0.00,,---,0.00,VWS V14.00,2013-08-25 19:35:00,
2013-08-25 15:40:00,85.3,67.8,30.13,SW,216,10.0,19.0,56,0.00,,---,0.00,VWS V14.00,2013-08-25 19:40:00,
2013-08-25 15:45:00,85.7,67.7,30.13,SW,222,11.0,19.0,55,0.00,,---,0.00,VWS V14.00,2013-08-25 19:45:00,
2013-08-25 15:50:00,86.2,68.2,30.13,SW,226,6.0,19.0,55,0.00,,---,0.00,VWS V14.00,2013-08-25 19:50:00,
2013-08-25 15:55:00,86.6,68.0,30.13,WSW,252,7.0,19.0,54,0.00,,---,0.00,VWS V14.00,2013-08-25 19:55:00,
2013-08-25 16:00:00,87.0,68.9,30.13,West,279,6.0,14.0,55,0.00,,---,0.00,VWS V14.00,2013-08-25 20:00:00,
2013-08-25 16:05:00,87.3,68.6,30.13,SW,216,7.0,18.0,54,0.00,,---,0.00,VWS V14.00,2013-08-25 20:05:00,
2013-08-25 16:10:00,87.6,68.4,30.12,WSW,252,8.0,19.0,53,0.00,,---,0.00,VWS V14.00,2013-08-25 20:10:00,
2013-08-25 16:15:00,87.3,68.6,30.12,SSW,195,8.0,19.0,54,0.00,,---,0.00,VWS V14.00,2013-08-25 20:15:00,
2013-08-25 16:20:00,87.1,68.4,30.12,SSW,201,6.0,19.0,54,0.00,,---,0.00,VWS V14.00,2013-08-25 20:20:00,
2013-08-25 16:25:00,87.2,68.5,30.12,SSW,195,4.0,19.0,54,0.00,,---,0.00,VWS V14.00,2013-08-25 20:25:00,
2013-08-25 16:30:00,87.6,68.4,30.12,SW,235,7.0,18.0,53,0.00,,---,0.00,VWS V14.00,2013-08-25 20:30:00,
2013-08-25 16:35:00,88.1,68.8,30.12,SW,215,6.0,18.0,53,0.00,,---,0.00,VWS V14.00,2013-08-25 20:35:00,
2013-08-25 16:40:00,87.8,68.6,30.11,SW,232,3.0,18.0,53,0.00,,---,0.00,VWS V14.00,2013-08-25 20:40:00,
2013-08-25 16:45:00,87.7,69.0,30.11,SW,221,6.0,18.0,54,0.00,,---,0.00,VWS V14.00,2013-08-25 20:45:00,
2013-08-25 16:50:00,87.9,69.2,30.11,SW,232,9.0,18.0,54,0.00,,---,0.00,VWS V14.00,2013-08-25 20:50:00,
2013-08-25 16:55:00,88.1,68.8,30.11,SW,223,6.0,18.0,53,0.00,,---,0.00,VWS V14.00,2013-08-25 20:55:00,
2013-08-25 17:00:00,88.1,68.8,30.10,SW,222,9.0,12.0,53,0.00,,---,0.00,VWS V14.00,2013-08-25 21:00:00,
2013-08-25 17:05:00,88.1,68.8,30.11,SSW,212,11.0,15.0,53,0.00,,---,0.00,VWS V14.00,2013-08-25 21:05:00,
2013-08-25 17:10:00,88.2,68.9,30.11,WSW,240,9.0,15.0,53,0.00,,---,0.00,VWS V14.00,2013-08-25 21:10:00,
2013-08-25 17:15:00,88.3,69.0,30.11,SW,218,9.0,15.0,53,0.00,,---,0.00,VWS V14.00,2013-08-25 21:15:00,
2013-08-25 17:20:00,87.9,68.7,30.10,SW,232,9.0,18.0,53,0.00,,---,0.00,VWS V14.00,2013-08-25 21:20:00,
2013-08-25 17:25:00,87.9,69.2,30.10,SW,225,6.0,18.0,54,0.00,,---,0.00,VWS V14.00,2013-08-25 21:25:00,
2013-08-25 17:30:00,87.8,69.1,30.10,SW,231,12.0,18.0,54,0.00,,---,0.00,VWS V14.00,2013-08-25 21:30:00,
2013-08-25 17:35:00,88.0,68.7,30.10,West,271,9.0,20.0,53,0.00,,---,0.00,VWS V14.00,2013-08-25 21:35:00,
2013-08-25 17:40:00,88.1,68.8,30.10,WSW,244,4.0,20.0,53,0.00,,---,0.00,VWS V14.00,2013-08-25 21:40:00,
2013-08-25 17:46:00,88.0,68.2,30.10,SW,220,14.0,20.0,52,0.00,,---,0.00,VWS V14.00,2013-08-25 21:46:00,
2013-08-25 17:51:00,87.9,68.7,30.10,West,268,7.0,20.0,53,0.00,,---,0.00,VWS V14.00,2013-08-25 21:51:00,
2013-08-25 17:56:00,87.9,68.7,30.10,SW,228,8.0,20.0,53,0.00,,---,0.00,VWS V14.00,2013-08-25 21:56:00,
2013-08-25 18:00:00,87.9,68.7,30.10,SW,221,11.0,20.0,53,0.00,,---,0.00,VWS V14.00,2013-08-25 22:00:00,
2013-08-25 18:01:00,88.1,68.3,30.10,WNW,290,12.0,17.0,52,0.00,,---,0.00,VWS V14.00,2013-08-25 22:01:00,
2013-08-25 18:06:00,87.9,68.1,30.10,SW,220,15.0,19.0,52,0.00,,---,0.00,VWS V14.00,2013-08-25 22:06:00,
2013-08-25 18:11:00,87.8,68.0,30.10,SW,217,8.0,19.0,52,0.00,,---,0.00,VWS V14.00,2013-08-25 22:11:00,
2013-08-25 18:16:00,87.6,68.4,30.10,WSW,247,7.0,19.0,53,0.00,,---,0.00,VWS V14.00,2013-08-25 22:16:00,
2013-08-25 18:21:00,87.6,68.4,30.09,West,264,6.0,19.0,53,0.00,,---,0.00,VWS V14.00,2013-08-25 22:21:00,
2013-08-25 18:26:00,87.7,68.5,30.09,SW,217,6.0,19.0,53,0.00,,---,0.00,VWS V14.00,2013-08-25 22:26:00,
2013-08-25 18:30:00,87.6,68.4,30.09,SSW,209,12.0,19.0,53,0.00,,---,0.00,VWS V14.00,2013-08-25 22:30:00,
2013-08-25 18:31:00,87.2,68.0,30.09,SW,234,17.0,20.0,53,0.00,,---,0.00,VWS V14.00,2013-08-25 22:31:00,
2013-08-25 18:36:00,87.1,68.4,30.10,SW,219,8.0,20.0,54,0.00,,---,0.00,VWS V14.00,2013-08-25 22:36:00,
2013-08-25 18:41:00,87.1,68.4,30.09,SW,225,8.0,20.0,54,0.00,,---,0.00,VWS V14.00,2013-08-25 22:41:00,
2013-08-25 18:46:00,86.9,68.3,30.09,SW,214,15.0,21.0,54,0.00,,---,0.00,VWS V14.00,2013-08-25 22:46:00,
2013-08-25 18:51:00,86.7,68.6,30.09,South,186,4.0,21.0,55,0.00,,---,0.00,VWS V14.00,2013-08-25 22:51:00,
2013-08-25 18:56:00,86.5,69.0,30.09,WSW,245,6.0,21.0,56,0.00,,---,0.00,VWS V14.00,2013-08-25 22:56:00,
2013-08-25 19:00:00,86.5,69.0,30.09,SSW,208,9.0,21.0,56,0.00,,---,0.00,VWS V14.00,2013-08-25 23:00:00,
2013-08-25 19:01:00,86.3,69.3,30.09,SW,221,10.0,12.0,57,0.00,,---,0.00,VWS V14.00,2013-08-25 23:01:00,
2013-08-25 19:06:00,86.0,69.0,30.09,SSW,210,5.0,14.0,57,0.00,,---,0.00,VWS V14.00,2013-08-25 23:06:00,
2013-08-25 19:11:00,85.8,68.8,30.09,SW,218,11.0,14.0,57,0.00,,---,0.00,VWS V14.00,2013-08-25 23:11:00,
2013-08-25 19:16:00,85.7,69.2,30.09,SW,217,8.0,14.0,58,0.00,,---,0.00,VWS V14.00,2013-08-25 23:16:00,
2013-08-25 19:21:00,85.4,69.0,30.09,SSW,203,9.0,14.0,58,0.00,,---,0.00,VWS V14.00,2013-08-25 23:21:00,
2013-08-25 19:26:00,85.2,68.8,30.09,SW,219,12.0,14.0,58,0.00,,---,0.00,VWS V14.00,2013-08-25 23:26:00,
2013-08-25 19:30:00,85.1,68.7,30.09,SW,223,6.0,14.0,58,0.00,,---,0.00,VWS V14.00,2013-08-25 23:30:00,
2013-08-25 19:31:00,84.9,69.0,30.09,SW,230,4.0,11.0,59,0.00,,---,0.00,VWS V14.00,2013-08-25 23:31:00,
2013-08-25 19:36:00,84.7,68.8,30.09,SW,234,8.0,11.0,59,0.00,,---,0.00,VWS V14.00,2013-08-25 23:36:00,
2013-08-25 19:41:00,84.4,69.0,30.09,SW,221,11.0,11.0,60,0.00,,---,0.00,VWS V14.00,2013-08-25 23:41:00,
2013-08-25 19:46:00,84.2,68.8,30.10,SW,217,6.0,14.0,60,0.00,,---,0.00,VWS V14.00,2013-08-25 23:46:00,
2013-08-25 19:51:00,83.9,68.5,30.10,SW,218,8.0,14.0,60,0.00,,---,0.00,VWS V14.00,2013-08-25 23:51:00,
2013-08-25 19:56:00,83.7,68.3,30.10,SSW,213,5.0,14.0,60,0.00,,---,0.00,VWS V14.00,2013-08-25 23:56:00,
2013-08-25 20:00:00,83.7,68.3,30.10,SW,220,6.0,14.0,60,0.00,,---,0.00,VWS V14.00,2013-08-26 00:00:00,
2013-08-25 20:01:00,83.5,68.7,30.10,SW,220,6.0,9.0,61,0.00,,---,0.00,VWS V14.00,2013-08-26 00:01:00,
2013-08-25 20:06:00,83.4,68.6,30.10,SW,215,5.0,12.0,61,0.00,,---,0.00,VWS V14.00,2013-08-26 00:06:00,
2013-08-25 20:11:00,83.1,68.3,30.11,SW,217,3.0,12.0,61,0.00,,---,0.00,VWS V14.00,2013-08-26 00:11:00,
2013-08-25 20:16:00,82.8,68.5,30.11,SW,225,10.0,13.0,62,0.00,,---,0.00,VWS V14.00,2013-08-26 00:16:00,
2013-08-25 20:21:00,82.7,68.4,30.10,SW,215,5.0,13.0,62,0.00,,---,0.00,VWS V14.00,2013-08-26 00:21:00,
2013-08-25 20:26:00,82.5,68.2,30.10,SSW,213,4.0,13.0,62,0.00,,---,0.00,VWS V14.00,2013-08-26 00:26:00,
2013-08-25 20:30:00,82.5,68.2,30.10,SW,219,7.0,13.0,62,0.00,,---,0.00,VWS V14.00,2013-08-26 00:30:00,
2013-08-25 20:31:00,82.4,68.1,30.11,SW,219,10.0,12.0,62,0.00,,---,0.00,VWS V14.00,2013-08-26 00:31:00,
2013-08-25 20:36:00,82.2,67.9,30.11,SSW,213,9.0,12.0,62,0.00,,---,0.00,VWS V14.00,2013-08-26 00:36:00,
2013-08-25 20:41:00,82.0,67.7,30.10,SW,220,6.0,13.0,62,0.00,,---,0.00,VWS V14.00,2013-08-26 00:41:00,
2013-08-25 20:46:00,81.8,68.0,30.11,SW,224,4.0,13.0,63,0.00,,---,0.00,VWS V14.00,2013-08-26 00:46:00,
2013-08-25 20:51:00,81.6,67.8,30.10,SW,216,6.0,13.0,63,0.00,,---,0.00,VWS V14.00,2013-08-26 00:51:00,
2013-08-25 20:56:00,81.2,67.9,30.11,SW,215,6.0,13.0,64,0.00,,---,0.00,VWS V14.00,2013-08-26 00:56:00,
2013-08-25 21:00:00,81.2,67.9,30.11,SW,215,2.0,13.0,64,0.00,,---,0.00,VWS V14.00,2013-08-26 01:00:00,
2013-08-25 21:01:00,80.8,67.9,30.11,SSW,204,2.0,6.0,65,0.00,,---,0.00,VWS V14.00,2013-08-26 01:01:00,
2013-08-25 21:06:00,80.4,68.0,30.11,SSW,202,4.0,6.0,66,0.00,,---,0.00,VWS V14.00,2013-08-26 01:06:00,
2013-08-25 21:11:00,80.0,68.1,30.11,SW,214,4.0,6.0,67,0.00,,---,0.00,VWS V14.00,2013-08-26 01:11:00,
2013-08-25 21:16:00,79.7,67.8,30.11,WSW,237,7.0,7.0,67,0.00,,---,0.00,VWS V14.00,2013-08-26 01:16:00,
2013-08-25 21:21:00,79.5,68.0,30.11,SW,220,3.0,10.0,68,0.00,,---,0.00,VWS V14.00,2013-08-26 01:21:00,
2013-08-25 21:26:00,79.5,68.0,30.11,SW,216,8.0,10.0,68,0.00,,---,0.00,VWS V14.00,2013-08-26 01:26:00,
2013-08-25 21:30:00,79.5,68.0,30.11,WSW,257,3.0,10.0,68,0.00,,---,0.00,VWS V14.00,2013-08-26 01:30:00,
2013-08-25 21:31:00,79.5,68.0,30.11,SW,232,5.0,9.0,68,0.00,,---,0.00,VWS V14.00,2013-08-26 01:31:00,
2013-08-25 21:36:00,79.4,67.9,30.11,SSW,211,6.0,9.0,68,0.00,,---,0.00,VWS V14.00,2013-08-26 01:36:00,
2013-08-25 21:41:00,79.4,67.9,30.11,SSW,207,4.0,12.0,68,0.00,,---,0.00,VWS V14.00,2013-08-26 01:41:00,
2013-08-25 21:46:00,79.3,67.8,30.12,SW,218,6.0,12.0,68,0.00,,---,0.00,VWS V14.00,2013-08-26 01:46:00,
2013-08-25 21:51:00,79.2,67.7,30.12,SW,217,4.0,12.0,68,0.00,,---,0.00,VWS V14.00,2013-08-26 01:51:00,
2013-08-25 21:56:00,79.0,67.6,30.12,SW,232,3.0,12.0,68,0.00,,---,0.00,VWS V14.00,2013-08-26 01:56:00,
2013-08-25 22:00:00,79.0,67.6,30.12,SW,232,3.0,12.0,68,0.00,,---,0.00,VWS V14.00,2013-08-26 02:00:00,
2013-08-25 22:01:00,78.8,67.8,30.12,SSW,210,4.0,8.0,69,0.00,,---,0.00,VWS V14.00,2013-08-26 02:01:00,
2013-08-25 22:07:00,78.5,67.5,30.12,SSW,206,4.0,8.0,69,0.00,,---,0.00,VWS V14.00,2013-08-26 02:07:00,
2013-08-25 22:12:00,78.2,67.6,30.12,SW,216,4.0,8.0,70,0.00,,---,0.00,VWS V14.00,2013-08-26 02:12:00,
2013-08-25 22:17:00,78.0,67.4,30.12,SSW,195,2.0,8.0,70,0.00,,---,0.00,VWS V14.00,2013-08-26 02:17:00,
2013-08-25 22:22:00,77.6,67.5,30.12,SSW,199,5.0,8.0,71,0.00,,---,0.00,VWS V14.00,2013-08-26 02:22:00,
2013-08-25 22:27:00,77.4,67.3,30.12,SSW,210,5.0,5.0,71,0.00,,---,0.00,VWS V14.00,2013-08-26 02:27:00,
2013-08-25 22:30:00,77.4,67.3,30.12,SSW,209,5.0,8.0,71,0.00,,---,0.00,VWS V14.00,2013-08-26 02:30:00,
2013-08-25 22:32:00,77.1,67.4,30.11,SW,224,6.0,8.0,72,0.00,,---,0.00,VWS V14.00,2013-08-26 02:32:00,
2013-08-25 22:37:00,76.9,67.2,30.12,SW,215,2.0,8.0,72,0.00,,---,0.00,VWS V14.00,2013-08-26 02:37:00,
2013-08-25 22:42:00,76.7,67.4,30.12,SSW,198,6.0,8.0,73,0.00,,---,0.00,VWS V14.00,2013-08-26 02:42:00,
2013-08-25 22:47:00,76.5,67.2,30.12,SSW,192,4.0,8.0,73,0.00,,---,0.00,VWS V14.00,2013-08-26 02:47:00,
2013-08-25 22:52:00,76.3,67.4,30.12,SW,215,4.0,8.0,74,0.00,,---,0.00,VWS V14.00,2013-08-26 02:52:00,
2013-08-25 22:57:00,76.2,67.3,30.12,SSW,200,4.0,8.0,74,0.00,,---,0.00,VWS V14.00,2013-08-26 02:57:00,
2013-08-25 23:00:00,76.2,67.3,30.12,SSW,200,4.0,8.0,74,0.00,,---,0.00,VWS V14.00,2013-08-26 03:00:00,
2013-08-25 23:02:00,76.0,67.1,30.12,SW,215,4.0,6.0,74,0.00,,---,0.00,VWS V14.00,2013-08-26 03:02:00,
2013-08-25 23:07:00,75.9,67.0,30.12,SW,215,4.0,6.0,74,0.00,,---,0.00,VWS V14.00,2013-08-26 03:07:00,
2013-08-25 23:12:00,75.8,66.9,30.12,SW,218,6.0,7.0,74,0.00,,---,0.00,VWS V14.00,2013-08-26 03:12:00,
2013-08-25 23:17:00,75.7,67.2,30.12,SW,221,6.0,7.0,75,0.00,,---,0.00,VWS V14.00,2013-08-26 03:17:00,
2013-08-25 23:22:00,75.5,67.0,30.12,SW,220,4.0,8.0,75,0.00,,---,0.00,VWS V14.00,2013-08-26 03:22:00,
2013-08-25 23:27:00,75.3,67.2,30.12,SSW,213,6.0,6.0,76,0.00,,---,0.00,VWS V14.00,2013-08-26 03:27:00,
2013-08-25 23:30:00,75.3,67.2,30.12,SSW,213,3.0,9.0,76,0.00,,---,0.00,VWS V14.00,2013-08-26 03:30:00,
2013-08-25 23:32:00,75.2,67.1,30.12,SSW,200,5.0,6.0,76,0.00,,---,0.00,VWS V14.00,2013-08-26 03:32:00,
2013-08-25 23:37:00,75.0,66.9,30.12,SSW,202,3.0,6.0,76,0.00,,---,0.00,VWS V14.00,2013-08-26 03:37:00,
2013-08-25 23:42:00,74.8,67.1,30.12,SSW,203,3.0,6.0,77,0.00,,---,0.00,VWS V14.00,2013-08-26 03:42:00,
2013-08-25 23:47:00,74.7,67.0,30.12,SSW,204,3.0,6.0,77,0.00,,---,0.00,VWS V14.00,2013-08-26 03:47:00,
2013-08-25 23:52:00,74.6,66.9,30.12,SSW,207,2.0,6.0,77,0.00,,---,0.00,VWS V14.00,2013-08-26 03:52:00,
2013-08-25 23:57:00,74.5,67.2,30.12,SSW,207,3.0,3.0,78,0.00,,---,0.00,VWS V14.00,2013-08-26 03:57:00,